Location: Firdgum
(53.2488°N, 5.5615°E)
Time: 04:52:06
(UTC+00:00)

USA 116 - Pass Details

Date: 08 December 2019
Orbit: 405 x 834 km, 97.9° (Epoch: 18 November)

Event Time Altitude Azimuth Distance (km) Brightness Sun altitude
Rises 05:16:25 0° 175° (S) 2,846 7.6 -19.9°
Reaches altitude 10° 05:18:30 10° 179° (S) 2,008 6.7 -19.6°
Maximum altitude 05:22:53 60° 260° (W) 790 4.1 -19.0°
Enters shadow 05:26:11 20° 335° (NNW) 1,637 5.8 -18.5°
